Chillicothe, MO

10:55 PM CDT on April 23, 2017 (GMT -0500)
Chillicothe

Weather History for KCDJ - November, 2012

Change the Weather History Date:

Friday, November 23, 2012

  Actual Average (KIRK) Record (KIRK)
Temperature  
Mean Temperature 34 °F -  
Max Temperature 42 °F 47 °F 71 °F (1966)
Min Temperature 24 °F 30 °F 8 °F (1970)
Degree Days  
Heating Degree Days 31    
Moisture  
Dew Point 19 °F    
Average Humidity 54    
Maximum Humidity 73    
Minimum Humidity 39    
Precipitation  
Precipitation 0.00 in - - ()
Sea Level Pressure  
Sea Level Pressure 30.40 in    
Wind  
Wind Speed 9 mph (NW)    
Max Wind Speed 16 mph    
Max Gust Speed 29 mph    
Averages and records for this station are not official NWS values.
T = Trace of Precipitation, MM = Missing Value Source: NWS Daily Summary

Daily Weather History Graph

Daily Weather History Graph

Search for Another Location

Airport or City:

Trip Planner

Search our weather history database for the weather conditions in past years. The results will help you decide how hot, cold, wet, or windy it might be!

Date:

Astronomy

Nov. 23, 2012 Rise Set
Actual Time 7:08 AM CST 4:52 PM CST
Civil Twilight 6:39 AM CST 5:22 PM CST
Nautical Twilight 6:05 AM CST 5:55 PM CST
Astronomical Twilight 5:33 AM CST 6:27 PM CST
Moon 2:07 PM CST (11/23) 2:28 AM CST (11/23)
Length of Visible Light 10h 43m
Length of Day
9h 44m
Waxing Gibbous, 80% of the Moon is Illuminated
Nov 23
Waxing Gibbous
Nov 28
Full
Dec 6
Last Quarter
Dec 13
New
Dec 19
First Quarter

Hourly Weather History & Observations

Time (CST) Temp. Windchill Dew Point Humidity Pressure Visibility Wind Dir Wind Speed Gust Speed Precip Events Conditions
12:52 AM 41.0 °F 39.0 °F 33.1 °F 73% 30.22 in - Variable 3.5 mph - N/A   Unknown
1:52 AM 42.1 °F 38.4 °F 33.1 °F 70% 30.22 in - West 5.8 mph - N/A   Unknown
2:52 AM 39.9 °F 35.8 °F 32.0 °F 73% 30.22 in - Variable 5.8 mph - N/A   Unknown
3:52 AM 42.1 °F 35.2 °F 28.9 °F 60% 30.23 in - WNW 12.7 mph 21.9 mph N/A   Unknown
4:52 AM 39.0 °F 31.4 °F 25.0 °F 57% 30.28 in - NNW 12.7 mph 26.5 mph N/A   Unknown
5:52 AM 37.0 °F 28.1 °F 23.0 °F 57% 30.32 in - NW 15.0 mph 23.0 mph N/A   Unknown
6:52 AM 33.1 °F 22.6 °F 19.0 °F 56% 30.38 in - NW 16.1 mph 28.8 mph N/A   Unknown
7:52 AM 30.9 °F 20.2 °F 16.0 °F 54% 30.41 in - NW 15.0 mph 21.9 mph N/A   Unknown
8:52 AM 32.0 °F 21.6 °F 17.1 °F 54% 30.43 in - WNW 15.0 mph 26.5 mph N/A   Unknown
9:52 AM 33.1 °F 22.6 °F 16.0 °F 50% 30.46 in - NW 16.1 mph 25.3 mph N/A   Unknown
10:52 AM 34.0 °F 23.8 °F 16.0 °F 48% 30.47 in - WNW 16.1 mph 27.6 mph N/A   Unknown
11:52 AM 36.0 °F 26.3 °F 16.0 °F 44% 30.45 in - WNW 16.1 mph 23.0 mph N/A   Unknown
12:52 PM 37.0 °F 28.5 °F 15.1 °F 41% 30.44 in - NW 13.8 mph 25.3 mph N/A   Unknown
1:52 PM 37.9 °F 29.6 °F 15.1 °F 39% 30.44 in - NW 13.8 mph 24.2 mph N/A   Unknown
2:52 PM 37.0 °F 27.7 °F 15.1 °F 41% 30.43 in - NW 16.1 mph 21.9 mph N/A   Unknown
3:52 PM 36.0 °F 29.6 °F 15.1 °F 43% 30.44 in - NW 8.1 mph 21.9 mph N/A   Unknown
4:52 PM 34.0 °F 26.6 °F 14.0 °F 44% 30.46 in - NW 9.2 mph - N/A   Unknown
5:52 PM 30.9 °F 24.3 °F 15.1 °F 52% 30.48 in - NW 6.9 mph - N/A   Unknown
6:52 PM 30.0 °F 23.2 °F 15.1 °F 54% 30.48 in - NW 6.9 mph - N/A   Unknown
7:52 PM 28.0 °F 21.7 °F 15.1 °F 58% 30.49 in - NW 5.8 mph - N/A   Unknown
8:52 PM 27.0 °F 21.6 °F 14.0 °F 58% 30.48 in - NW 4.6 mph - N/A   Unknown
9:52 PM 26.1 °F 19.4 °F 14.0 °F 60% 30.47 in - NW 5.8 mph - N/A   Unknown
10:52 PM 26.1 °F 20.5 °F 12.9 °F 58% 30.47 in - NW 4.6 mph - N/A   Unknown
11:52 PM 24.1 °F 19.7 °F 12.9 °F 62% 30.46 in - NNW 3.5 mph - N/A   Unknown